Year,Month,Day,Hour,Minute,Value (Times are PST for temperature in C)
2006,10,22,00,00,7.80
2006,10,22,00,01,7.80
2006,10,22,00,02,7.80
2006,10,22,00,03,7.80
2006,10,22,00,04,7.80
2006,10,22,00,05,7.80
2006,10,22,00,06,7.80
2006,10,22,00,07,7.80
2006,10,22,00,08,7.80
2006,10,22,00,09,7.80
2006,10,22,00,10,7.80
2006,10,22,00,11,7.80
2006,10,22,00,12,7.80
2006,10,22,00,13,7.80
2006,10,22,00,14,7.80
2006,10,22,00,15,7.80
2006,10,22,00,16,7.80
2006,10,22,00,17,7.80
2006,10,22,00,18,7.80
2006,10,22,00,19,7.80
2006,10,22,00,20,7.80
2006,10,22,00,21,7.80
2006,10,22,00,22,7.80
2006,10,22,00,23,7.80
2006,10,22,00,24,7.80
2006,10,22,00,25,7.80
2006,10,22,00,26,7.70
2006,10,22,00,27,7.70
2006,10,22,00,28,7.70
2006,10,22,00,29,7.60
2006,10,22,00,30,7.60
2006,10,22,00,31,7.60
2006,10,22,00,32,7.60
2006,10,22,00,33,7.50
2006,10,22,00,34,7.50
2006,10,22,00,35,7.50
2006,10,22,00,36,7.50
2006,10,22,00,37,7.50
2006,10,22,00,38,7.50
2006,10,22,00,39,7.50
2006,10,22,00,40,7.40
2006,10,22,00,41,7.40
2006,10,22,00,42,7.40
2006,10,22,00,43,7.40
2006,10,22,00,44,7.40
2006,10,22,00,45,7.40
2006,10,22,00,46,7.40
2006,10,22,00,47,7.40
2006,10,22,00,48,7.40
2006,10,22,00,49,7.40
2006,10,22,00,50,7.40
2006,10,22,00,51,7.40
2006,10,22,00,52,7.40
2006,10,22,00,53,7.40
2006,10,22,00,54,7.30
2006,10,22,00,55,7.30
2006,10,22,00,56,7.30
2006,10,22,00,57,7.30
2006,10,22,00,58,7.30
2006,10,22,00,59,7.30
2006,10,22,01,00,7.30
2006,10,22,01,01,7.30
2006,10,22,01,02,7.30
2006,10,22,01,03,7.30
2006,10,22,01,04,7.30
2006,10,22,01,05,7.30
2006,10,22,01,06,7.30
2006,10,22,01,07,7.30
2006,10,22,01,08,7.40
2006,10,22,01,09,7.40
2006,10,22,01,10,7.40
2006,10,22,01,11,7.40
2006,10,22,01,12,7.40
2006,10,22,01,13,7.40
2006,10,22,01,14,7.30
2006,10,22,01,15,7.30
2006,10,22,01,16,7.30
2006,10,22,01,17,7.30
2006,10,22,01,18,7.30
2006,10,22,01,19,7.30
2006,10,22,01,20,7.30
2006,10,22,01,21,7.30
2006,10,22,01,22,7.30
2006,10,22,01,23,7.30
2006,10,22,01,24,7.30
2006,10,22,01,25,7.30
2006,10,22,01,26,7.30
2006,10,22,01,27,7.30
2006,10,22,01,28,7.30
2006,10,22,01,29,7.30
2006,10,22,01,30,7.30
2006,10,22,01,31,7.30
2006,10,22,01,32,7.30
2006,10,22,01,33,7.30
2006,10,22,01,34,7.30
2006,10,22,01,35,7.30
2006,10,22,01,36,7.30
2006,10,22,01,37,7.30
2006,10,22,01,38,7.30
2006,10,22,01,39,7.30
2006,10,22,01,40,7.30
2006,10,22,01,41,7.30
2006,10,22,01,42,7.30
2006,10,22,01,43,7.30
2006,10,22,01,44,7.30
2006,10,22,01,45,7.20
2006,10,22,01,46,7.20
2006,10,22,01,47,7.20
2006,10,22,01,48,7.10
2006,10,22,01,49,7.10
2006,10,22,01,50,7.10
2006,10,22,01,51,7.00
2006,10,22,01,52,7.00
2006,10,22,01,53,7.00
2006,10,22,01,54,7.00
2006,10,22,01,55,7.00
2006,10,22,01,56,7.00
2006,10,22,01,57,7.00
2006,10,22,01,58,7.00
2006,10,22,01,59,7.10
2006,10,22,02,00,7.10
2006,10,22,02,01,7.10
2006,10,22,02,02,7.20
2006,10,22,02,03,7.20
2006,10,22,02,04,7.20
2006,10,22,02,05,7.20
2006,10,22,02,06,7.20
2006,10,22,02,07,7.20
2006,10,22,02,08,7.20
2006,10,22,02,09,7.20
2006,10,22,02,10,7.20
2006,10,22,02,11,7.20
2006,10,22,02,12,7.20
2006,10,22,02,13,7.20
2006,10,22,02,14,7.20
2006,10,22,02,15,7.20
2006,10,22,02,16,7.20
2006,10,22,02,17,7.20
2006,10,22,02,18,7.20
2006,10,22,02,19,7.20
2006,10,22,02,20,7.20
2006,10,22,02,21,7.20
2006,10,22,02,22,7.20
2006,10,22,02,23,7.20
2006,10,22,02,24,7.20
2006,10,22,02,25,7.20
2006,10,22,02,26,7.20
2006,10,22,02,27,7.20
2006,10,22,02,28,7.20
2006,10,22,02,29,7.10
2006,10,22,02,30,7.10
2006,10,22,02,31,7.10
2006,10,22,02,32,7.10
2006,10,22,02,33,7.00
2006,10,22,02,34,7.00
2006,10,22,02,35,7.00
2006,10,22,02,36,7.00
2006,10,22,02,37,7.00
2006,10,22,02,38,7.00
2006,10,22,02,39,7.00
2006,10,22,02,40,7.00
2006,10,22,02,41,7.00
2006,10,22,02,42,7.10
2006,10,22,02,43,7.10
2006,10,22,02,44,7.10
2006,10,22,02,45,7.10
2006,10,22,02,46,7.10
2006,10,22,02,47,7.10
2006,10,22,02,48,7.00
2006,10,22,02,49,7.00
2006,10,22,02,50,7.00
2006,10,22,02,51,7.00
2006,10,22,02,52,7.00
2006,10,22,02,53,7.00
2006,10,22,02,54,7.00
2006,10,22,02,55,6.90
2006,10,22,02,56,6.90
2006,10,22,02,57,6.90
2006,10,22,02,58,6.90
2006,10,22,02,59,6.80
2006,10,22,03,00,6.80
2006,10,22,03,01,6.80
2006,10,22,03,02,6.80
2006,10,22,03,03,6.80
2006,10,22,03,04,6.80
2006,10,22,03,05,6.80
2006,10,22,03,06,6.80
2006,10,22,03,07,6.80
2006,10,22,03,08,6.90
2006,10,22,03,09,6.90
2006,10,22,03,10,6.90
2006,10,22,03,11,6.90
2006,10,22,03,12,6.90
2006,10,22,03,13,6.90
2006,10,22,03,14,6.90
2006,10,22,03,15,6.90
2006,10,22,03,16,6.90
2006,10,22,03,17,6.90
2006,10,22,03,18,6.80
2006,10,22,03,19,6.80
2006,10,22,03,20,6.90
2006,10,22,03,21,6.90
2006,10,22,03,22,6.90
2006,10,22,03,23,6.90
2006,10,22,03,24,6.90
2006,10,22,03,25,6.90
2006,10,22,03,26,6.90
2006,10,22,03,27,6.90
2006,10,22,03,28,6.90
2006,10,22,03,29,6.90
2006,10,22,03,30,6.90
2006,10,22,03,31,7.00
2006,10,22,03,32,7.00
2006,10,22,03,33,7.00
2006,10,22,03,34,7.00
2006,10,22,03,35,7.00
2006,10,22,03,36,7.00
2006,10,22,03,37,7.00
2006,10,22,03,38,7.00
2006,10,22,03,39,7.00
2006,10,22,03,40,6.90
2006,10,22,03,41,6.90
2006,10,22,03,42,6.80
2006,10,22,03,43,6.80
2006,10,22,03,44,6.70
2006,10,22,03,45,6.60
2006,10,22,03,46,6.60
2006,10,22,03,47,6.60
2006,10,22,03,48,6.50
2006,10,22,03,49,6.40
2006,10,22,03,50,6.40
2006,10,22,03,51,6.40
2006,10,22,03,52,6.40
2006,10,22,03,53,6.40
2006,10,22,03,54,6.40
2006,10,22,03,55,6.40
2006,10,22,03,56,6.40
2006,10,22,03,57,6.40
2006,10,22,03,58,6.40
2006,10,22,03,59,6.50
2006,10,22,04,00,6.60
2006,10,22,04,01,6.60
2006,10,22,04,02,6.60
2006,10,22,04,03,6.60
2006,10,22,04,04,6.60
2006,10,22,04,05,6.60
2006,10,22,04,06,6.60
2006,10,22,04,07,6.60
2006,10,22,04,08,6.70
2006,10,22,04,09,6.70
2006,10,22,04,10,6.70
2006,10,22,04,11,6.70
2006,10,22,04,12,6.70
2006,10,22,04,13,6.80
2006,10,22,04,14,6.80
2006,10,22,04,15,6.80
2006,10,22,04,16,6.80
2006,10,22,04,17,6.80
2006,10,22,04,18,6.80
2006,10,22,04,19,6.80
2006,10,22,04,20,6.80
2006,10,22,04,21,6.80
2006,10,22,04,22,6.80
2006,10,22,04,23,6.70
2006,10,22,04,24,6.70
2006,10,22,04,25,6.70
2006,10,22,04,26,6.70
2006,10,22,04,27,6.70
2006,10,22,04,28,6.70
2006,10,22,04,29,6.70
2006,10,22,04,30,6.70
2006,10,22,04,31,6.70
2006,10,22,04,32,6.70
2006,10,22,04,33,6.70
2006,10,22,04,34,6.70
2006,10,22,04,35,6.70
2006,10,22,04,36,6.60
2006,10,22,04,37,6.60
2006,10,22,04,38,6.60
2006,10,22,04,39,6.60
2006,10,22,04,40,6.60
2006,10,22,04,41,6.60
2006,10,22,04,42,6.60
2006,10,22,04,43,6.60
2006,10,22,04,44,6.60
2006,10,22,04,45,6.60
2006,10,22,04,46,6.60
2006,10,22,04,47,6.60
2006,10,22,04,48,6.60
2006,10,22,04,49,6.60
2006,10,22,04,50,6.60
2006,10,22,04,51,6.60
2006,10,22,04,52,6.60
2006,10,22,04,53,6.60
2006,10,22,04,54,6.50
2006,10,22,04,55,6.40
2006,10,22,04,56,6.40
2006,10,22,04,57,6.40
2006,10,22,04,58,6.40
2006,10,22,04,59,6.40
2006,10,22,05,00,6.40
2006,10,22,05,01,6.40
2006,10,22,05,02,6.40
2006,10,22,05,03,6.40
2006,10,22,05,04,6.40
2006,10,22,05,05,6.40
2006,10,22,05,06,6.40
2006,10,22,05,07,6.40
2006,10,22,05,08,6.40
2006,10,22,05,09,6.40
2006,10,22,05,10,6.40
2006,10,22,05,11,6.40
2006,10,22,05,12,6.40
2006,10,22,05,13,6.40
2006,10,22,05,14,6.40
2006,10,22,05,15,6.40
2006,10,22,05,16,6.40
2006,10,22,05,17,6.40
2006,10,22,05,18,6.40
2006,10,22,05,19,6.40
2006,10,22,05,20,6.40
2006,10,22,05,21,6.40
2006,10,22,05,22,6.40
2006,10,22,05,23,6.40
2006,10,22,05,24,6.50
2006,10,22,05,25,6.60
2006,10,22,05,26,6.50
2006,10,22,05,27,6.40
2006,10,22,05,28,6.40
2006,10,22,05,29,6.40
2006,10,22,05,30,6.40
2006,10,22,05,31,6.40
2006,10,22,05,32,6.40
2006,10,22,05,33,6.40
2006,10,22,05,34,6.40
2006,10,22,05,35,6.40
2006,10,22,05,36,6.40
2006,10,22,05,37,6.40
2006,10,22,05,38,6.40
2006,10,22,05,39,6.40
2006,10,22,05,40,6.40
2006,10,22,05,41,6.40
2006,10,22,05,42,6.40
2006,10,22,05,43,6.40
2006,10,22,05,44,6.40
2006,10,22,05,45,6.40
2006,10,22,05,46,6.40
2006,10,22,05,47,6.40
2006,10,22,05,48,6.40
2006,10,22,05,49,6.40
2006,10,22,05,50,6.40
2006,10,22,05,51,6.40
2006,10,22,05,52,6.40
2006,10,22,05,53,6.40
2006,10,22,05,54,6.40
2006,10,22,05,55,6.40
2006,10,22,05,56,6.40
2006,10,22,05,57,6.40
2006,10,22,05,58,6.40
2006,10,22,05,59,6.40
2006,10,22,06,00,6.40
2006,10,22,06,01,6.40
2006,10,22,06,02,6.30
2006,10,22,06,03,6.30
2006,10,22,06,04,6.40
2006,10,22,06,05,6.40
2006,10,22,06,06,6.40
2006,10,22,06,07,6.40
2006,10,22,06,08,6.40
2006,10,22,06,09,6.40
2006,10,22,06,10,6.40
2006,10,22,06,11,6.40
2006,10,22,06,12,6.40
2006,10,22,06,13,6.40
2006,10,22,06,14,6.40
2006,10,22,06,15,6.40
2006,10,22,06,16,6.40
2006,10,22,06,17,6.40
2006,10,22,06,18,6.40
2006,10,22,06,19,6.40
2006,10,22,06,20,6.40
2006,10,22,06,21,6.40
2006,10,22,06,22,6.40
2006,10,22,06,23,6.40
2006,10,22,06,24,6.40
2006,10,22,06,25,6.40
2006,10,22,06,26,6.40
2006,10,22,06,27,6.40
2006,10,22,06,28,6.30
2006,10,22,06,29,6.30
2006,10,22,06,30,6.30
2006,10,22,06,31,6.30
2006,10,22,06,32,6.30
2006,10,22,06,33,6.30
2006,10,22,06,34,6.20
2006,10,22,06,35,6.20
2006,10,22,06,36,6.30
2006,10,22,06,37,6.30
2006,10,22,06,38,6.30
2006,10,22,06,39,6.30
2006,10,22,06,40,6.20
2006,10,22,06,41,6.20
2006,10,22,06,42,6.20
2006,10,22,06,43,6.20
2006,10,22,06,44,6.20
2006,10,22,06,45,6.30
2006,10,22,06,46,6.30
2006,10,22,06,47,6.30
2006,10,22,06,48,6.40
2006,10,22,06,49,6.40
2006,10,22,06,50,6.40
2006,10,22,06,51,6.40
2006,10,22,06,52,6.40
2006,10,22,06,53,6.40
2006,10,22,06,54,6.40
2006,10,22,06,55,6.40
2006,10,22,06,56,6.40
2006,10,22,06,57,6.40
2006,10,22,06,58,6.40
2006,10,22,06,59,6.40
2006,10,22,07,00,6.40
2006,10,22,07,01,6.40
2006,10,22,07,02,6.40
2006,10,22,07,03,6.40
2006,10,22,07,04,6.40
2006,10,22,07,05,6.40
2006,10,22,07,06,6.40
2006,10,22,07,07,6.40
2006,10,22,07,08,6.40
2006,10,22,07,09,6.40
2006,10,22,07,10,6.40
2006,10,22,07,11,6.40
2006,10,22,07,12,6.30
2006,10,22,07,13,6.30
2006,10,22,07,14,6.30
2006,10,22,07,15,6.30
2006,10,22,07,16,6.20
2006,10,22,07,17,6.20
2006,10,22,07,18,6.20
2006,10,22,07,19,6.20
2006,10,22,07,20,6.20
2006,10,22,07,21,6.20
2006,10,22,07,22,6.20
2006,10,22,07,23,6.10
2006,10,22,07,24,6.10
2006,10,22,07,25,6.10
2006,10,22,07,26,6.10
2006,10,22,07,27,6.10
2006,10,22,07,28,6.10
2006,10,22,07,29,6.10
2006,10,22,07,30,6.10
2006,10,22,07,31,6.20
2006,10,22,07,32,6.20
2006,10,22,07,33,6.20
2006,10,22,07,34,6.20
2006,10,22,07,35,6.20
2006,10,22,07,36,6.10
2006,10,22,07,37,6.10
2006,10,22,07,38,6.10
2006,10,22,07,39,6.10
2006,10,22,07,40,6.20
2006,10,22,07,41,6.20
2006,10,22,07,42,6.20
2006,10,22,07,43,6.20
2006,10,22,07,44,6.30
2006,10,22,07,45,6.30
2006,10,22,07,46,6.30
2006,10,22,07,47,6.30
2006,10,22,07,48,6.30
2006,10,22,07,49,6.30
2006,10,22,07,50,6.30
2006,10,22,07,51,6.30
2006,10,22,07,52,6.40
2006,10,22,07,53,6.40
2006,10,22,07,54,6.40
2006,10,22,07,55,6.30
2006,10,22,07,56,6.30
2006,10,22,07,57,6.30
2006,10,22,07,58,6.20
2006,10,22,07,59,6.20
2006,10,22,08,00,6.20
2006,10,22,08,01,6.20
2006,10,22,08,02,6.20
2006,10,22,08,03,6.20
2006,10,22,08,04,6.20
2006,10,22,08,05,6.20
2006,10,22,08,06,6.20
2006,10,22,08,07,6.20
2006,10,22,08,08,6.20
2006,10,22,08,09,6.20
2006,10,22,08,10,6.20
2006,10,22,08,11,6.20
2006,10,22,08,12,6.20
2006,10,22,08,13,6.20
2006,10,22,08,14,6.20
2006,10,22,08,15,6.20
2006,10,22,08,16,6.20
2006,10,22,08,17,6.20
2006,10,22,08,18,6.20
2006,10,22,08,19,6.20
2006,10,22,08,20,6.10
2006,10,22,08,21,6.10
2006,10,22,08,22,6.10
2006,10,22,08,23,6.10
2006,10,22,08,24,6.10
2006,10,22,08,25,6.00
2006,10,22,08,26,6.00
2006,10,22,08,27,6.00
2006,10,22,08,28,6.00
2006,10,22,08,29,6.00
2006,10,22,08,30,6.00
2006,10,22,08,31,6.00
2006,10,22,08,32,6.00
2006,10,22,08,33,6.00
2006,10,22,08,34,6.10
2006,10,22,08,35,6.10
2006,10,22,08,36,6.10
2006,10,22,08,37,6.10
2006,10,22,08,38,6.10
2006,10,22,08,39,6.10
2006,10,22,08,40,6.10
2006,10,22,08,41,6.10
2006,10,22,08,42,6.10
2006,10,22,08,43,6.10
2006,10,22,08,44,6.10
2006,10,22,08,45,6.10
2006,10,22,08,46,6.10
2006,10,22,08,47,6.20
2006,10,22,08,48,6.20
2006,10,22,08,49,6.20
2006,10,22,08,50,6.30
2006,10,22,08,51,6.30
2006,10,22,08,52,6.40
2006,10,22,08,53,6.40
2006,10,22,08,54,6.40
2006,10,22,08,55,6.40
2006,10,22,08,56,6.40
2006,10,22,08,57,6.60
2006,10,22,08,58,6.60
2006,10,22,08,59,6.60
2006,10,22,09,00,6.60
2006,10,22,09,01,6.60
2006,10,22,09,02,6.60
2006,10,22,09,03,6.60
2006,10,22,09,04,6.60
2006,10,22,09,05,6.70
2006,10,22,09,06,6.70
2006,10,22,09,07,6.70
2006,10,22,09,08,6.70
2006,10,22,09,09,6.70
2006,10,22,09,10,6.80
2006,10,22,09,11,6.80
2006,10,22,09,12,6.80
2006,10,22,09,13,6.80
2006,10,22,09,14,6.80
2006,10,22,09,15,6.90
2006,10,22,09,16,6.90
2006,10,22,09,17,6.90
2006,10,22,09,18,7.00
2006,10,22,09,19,7.00
2006,10,22,09,20,7.00
2006,10,22,09,21,7.10
2006,10,22,09,22,7.10
2006,10,22,09,23,7.10
2006,10,22,09,24,7.10
2006,10,22,09,25,7.20
2006,10,22,09,26,7.20
2006,10,22,09,27,7.20
2006,10,22,09,28,7.20
2006,10,22,09,29,7.20
2006,10,22,09,30,7.30
2006,10,22,09,31,7.30
2006,10,22,09,32,7.30
2006,10,22,09,33,7.30
2006,10,22,09,34,7.30
2006,10,22,09,35,7.30
2006,10,22,09,36,7.40
2006,10,22,09,37,7.40
2006,10,22,09,38,7.50
2006,10,22,09,39,7.50
2006,10,22,09,40,7.60
2006,10,22,09,41,7.60
2006,10,22,09,42,7.60
2006,10,22,09,43,7.70
2006,10,22,09,44,7.80
2006,10,22,09,45,7.80
2006,10,22,09,46,7.80
2006,10,22,09,47,7.80
2006,10,22,09,48,7.80
2006,10,22,09,49,7.80
2006,10,22,09,50,7.90
2006,10,22,09,51,7.90
2006,10,22,09,52,7.90
2006,10,22,09,53,7.90
2006,10,22,09,54,8.00
2006,10,22,09,55,8.00
2006,10,22,09,56,8.00
2006,10,22,09,57,8.00
2006,10,22,09,58,8.10
2006,10,22,09,59,8.10
2006,10,22,10,00,8.10
2006,10,22,10,01,8.10
2006,10,22,10,02,8.20
2006,10,22,10,03,8.20
2006,10,22,10,04,8.20
2006,10,22,10,05,8.30
2006,10,22,10,06,8.30
2006,10,22,10,07,8.40
2006,10,22,10,08,8.40
2006,10,22,10,09,8.50
2006,10,22,10,10,8.50
2006,10,22,10,11,8.60
2006,10,22,10,12,8.60
2006,10,22,10,13,8.70
2006,10,22,10,14,8.70
2006,10,22,10,15,8.80
2006,10,22,10,16,8.90
2006,10,22,10,17,9.00
2006,10,22,10,18,9.00
2006,10,22,10,19,9.10
2006,10,22,10,20,9.20
2006,10,22,10,21,9.20
2006,10,22,10,22,9.30
2006,10,22,10,23,9.30
2006,10,22,10,24,9.40
2006,10,22,10,25,9.50
2006,10,22,10,26,9.50
2006,10,22,10,27,9.60
2006,10,22,10,28,9.60
2006,10,22,10,29,9.70
2006,10,22,10,30,9.70
2006,10,22,10,31,9.70
2006,10,22,10,32,9.80
2006,10,22,10,33,9.80
2006,10,22,10,34,9.90
2006,10,22,10,35,9.90
2006,10,22,10,36,10.00
2006,10,22,10,37,10.10
2006,10,22,10,38,10.10
2006,10,22,10,39,10.10
2006,10,22,10,40,10.20
2006,10,22,10,41,10.20
2006,10,22,10,42,10.20
2006,10,22,10,43,10.30
2006,10,22,10,44,10.30
2006,10,22,10,45,10.40
2006,10,22,10,46,10.40
2006,10,22,10,47,10.40
2006,10,22,10,48,10.40
2006,10,22,10,49,10.50
2006,10,22,10,50,10.60
2006,10,22,10,51,10.60
2006,10,22,10,52,10.60
2006,10,22,10,53,10.60
2006,10,22,10,54,10.60
2006,10,22,10,55,10.60
2006,10,22,10,56,10.60
2006,10,22,10,57,10.70
2006,10,22,10,58,10.70
2006,10,22,10,59,10.70
2006,10,22,11,00,10.70
2006,10,22,11,01,10.70
2006,10,22,11,02,10.80
2006,10,22,11,03,10.80
2006,10,22,11,04,10.90
2006,10,22,11,05,10.90
2006,10,22,11,06,11.00
2006,10,22,11,07,11.10
2006,10,22,11,08,11.10
2006,10,22,11,09,11.20
2006,10,22,11,10,11.30
2006,10,22,11,11,11.30
2006,10,22,11,12,11.40
2006,10,22,11,13,11.50
2006,10,22,11,14,11.60
2006,10,22,11,15,11.60
2006,10,22,11,16,11.70
2006,10,22,11,17,11.80
2006,10,22,11,18,11.80
2006,10,22,11,19,11.90
2006,10,22,11,20,12.00
2006,10,22,11,21,12.00
2006,10,22,11,22,12.10
2006,10,22,11,23,12.10
2006,10,22,11,24,12.20
2006,10,22,11,25,12.20
2006,10,22,11,26,12.30
2006,10,22,11,27,12.30
2006,10,22,11,28,12.30
2006,10,22,11,29,12.30
2006,10,22,11,30,12.40
2006,10,22,11,31,12.40
2006,10,22,11,32,12.50
2006,10,22,11,33,12.60
2006,10,22,11,34,12.60
2006,10,22,11,35,12.60
2006,10,22,11,36,12.60
2006,10,22,11,37,12.60
2006,10,22,11,38,12.50
2006,10,22,11,39,12.50
2006,10,22,11,40,12.50
2006,10,22,11,41,12.40
2006,10,22,11,42,12.40
2006,10,22,11,43,12.40
2006,10,22,11,44,12.40
2006,10,22,11,45,12.40
2006,10,22,11,46,12.40
2006,10,22,11,47,12.40
2006,10,22,11,48,12.40
2006,10,22,11,49,12.40
2006,10,22,11,50,12.40
2006,10,22,11,51,12.50
2006,10,22,11,52,12.50
2006,10,22,11,53,12.60
2006,10,22,11,54,12.70
2006,10,22,11,55,12.70
2006,10,22,11,56,12.80
2006,10,22,11,57,12.80
2006,10,22,11,58,12.80
2006,10,22,11,59,12.80
2006,10,22,12,00,12.90
2006,10,22,12,01,12.90
2006,10,22,12,02,13.00
2006,10,22,12,03,13.00
2006,10,22,12,04,13.00
2006,10,22,12,05,13.10
2006,10,22,12,06,13.10
2006,10,22,12,07,13.10
2006,10,22,12,08,13.10
2006,10,22,12,09,13.10
2006,10,22,12,10,13.10
2006,10,22,12,11,13.20
2006,10,22,12,12,13.20
2006,10,22,12,13,13.20
2006,10,22,12,14,13.20
2006,10,22,12,15,13.20
2006,10,22,12,16,13.30
2006,10,22,12,17,13.30
2006,10,22,12,18,13.40
2006,10,22,12,19,13.40
2006,10,22,12,20,13.50
2006,10,22,12,21,13.50
2006,10,22,12,22,13.60
2006,10,22,12,23,13.60
2006,10,22,12,24,13.70
2006,10,22,12,25,13.70
2006,10,22,12,26,13.80
2006,10,22,12,27,13.90
2006,10,22,12,28,13.90
2006,10,22,12,29,14.00
2006,10,22,12,30,14.10
2006,10,22,12,31,14.10
2006,10,22,12,32,14.20
2006,10,22,12,33,14.20
2006,10,22,12,34,14.20
2006,10,22,12,35,14.20
2006,10,22,12,36,14.20
2006,10,22,12,37,14.20
2006,10,22,12,38,14.20
2006,10,22,12,39,14.10
2006,10,22,12,40,14.10
2006,10,22,12,41,14.10
2006,10,22,12,42,14.10
2006,10,22,12,43,14.10
2006,10,22,12,44,14.10
2006,10,22,12,45,14.20
2006,10,22,12,46,14.20
2006,10,22,12,47,14.20
2006,10,22,12,48,14.10
2006,10,22,12,49,14.00
2006,10,22,12,50,14.00
2006,10,22,12,51,13.90
2006,10,22,12,52,13.90
2006,10,22,12,53,13.90
2006,10,22,12,54,13.80
2006,10,22,12,55,13.80
2006,10,22,12,56,13.70
2006,10,22,12,57,13.70
2006,10,22,12,58,13.80
2006,10,22,12,59,13.90
2006,10,22,13,00,14.00
2006,10,22,13,01,14.00
2006,10,22,13,02,14.10
2006,10,22,13,03,14.20
2006,10,22,13,04,14.20
2006,10,22,13,05,14.20
2006,10,22,13,06,14.20
2006,10,22,13,07,14.20
2006,10,22,13,08,14.10
2006,10,22,13,09,14.00
2006,10,22,13,10,13.90
2006,10,22,13,11,13.90
2006,10,22,13,12,13.90
2006,10,22,13,13,13.90
2006,10,22,13,14,13.90
2006,10,22,13,15,13.90
2006,10,22,13,16,13.90
2006,10,22,13,17,13.80
2006,10,22,13,18,13.80
2006,10,22,13,19,13.80
2006,10,22,13,20,13.70
2006,10,22,13,21,13.60
2006,10,22,13,22,13.60
2006,10,22,13,23,13.60
2006,10,22,13,24,13.70
2006,10,22,13,25,13.70
2006,10,22,13,26,13.80
2006,10,22,13,27,13.90
2006,10,22,13,28,13.90
2006,10,22,13,29,13.90
2006,10,22,13,30,14.00
2006,10,22,13,31,14.10
2006,10,22,13,32,14.20
2006,10,22,13,33,14.20
2006,10,22,13,34,14.30
2006,10,22,13,35,14.40
2006,10,22,13,36,14.50
2006,10,22,13,37,14.50
2006,10,22,13,38,14.50
2006,10,22,13,39,14.50
2006,10,22,13,40,14.50
2006,10,22,13,41,14.50
2006,10,22,13,42,14.40
2006,10,22,13,43,14.50
2006,10,22,13,44,14.50
2006,10,22,13,45,14.60
2006,10,22,13,46,14.60
2006,10,22,13,47,14.60
2006,10,22,13,48,14.60
2006,10,22,13,49,14.60
2006,10,22,13,50,14.60
2006,10,22,13,51,14.60
2006,10,22,13,52,14.50
2006,10,22,13,53,14.30
2006,10,22,13,54,14.20
2006,10,22,13,55,14.20
2006,10,22,13,56,14.20
2006,10,22,13,57,14.20
2006,10,22,13,58,14.20
2006,10,22,13,59,14.20
2006,10,22,14,00,14.20
2006,10,22,14,01,14.10
2006,10,22,14,02,14.10
2006,10,22,14,03,14.00
2006,10,22,14,04,13.90
2006,10,22,14,05,13.90
2006,10,22,14,06,13.70
2006,10,22,14,07,13.60
2006,10,22,14,08,13.50
2006,10,22,14,09,13.50
2006,10,22,14,10,13.40
2006,10,22,14,11,13.30
2006,10,22,14,12,13.40
2006,10,22,14,13,13.40
2006,10,22,14,14,13.40
2006,10,22,14,15,13.40
2006,10,22,14,16,13.30
2006,10,22,14,17,13.40
2006,10,22,14,18,13.40
2006,10,22,14,19,13.40
2006,10,22,14,20,13.40
2006,10,22,14,21,13.40
2006,10,22,14,22,13.40
2006,10,22,14,23,13.50
2006,10,22,14,24,13.60
2006,10,22,14,25,13.70
2006,10,22,14,26,13.60
2006,10,22,14,27,13.60
2006,10,22,14,28,13.50
2006,10,22,14,29,13.50
2006,10,22,14,30,13.40
2006,10,22,14,31,13.40
2006,10,22,14,32,13.40
2006,10,22,14,33,13.30
2006,10,22,14,34,13.20
2006,10,22,14,35,13.20
2006,10,22,14,36,13.20
2006,10,22,14,37,13.20
2006,10,22,14,38,13.20
2006,10,22,14,39,13.20
2006,10,22,14,40,13.20
2006,10,22,14,41,13.20
2006,10,22,14,42,13.20
2006,10,22,14,43,13.10
2006,10,22,14,44,13.10
2006,10,22,14,45,13.10
2006,10,22,14,46,13.10
2006,10,22,14,47,13.10
2006,10,22,14,48,13.20
2006,10,22,14,49,13.20
2006,10,22,14,50,13.10
2006,10,22,14,51,13.10
2006,10,22,14,52,13.10
2006,10,22,14,53,13.10
2006,10,22,14,54,13.10
2006,10,22,14,55,13.20
2006,10,22,14,56,13.30
2006,10,22,14,57,13.30
2006,10,22,14,58,13.30
2006,10,22,14,59,13.30
2006,10,22,15,00,13.30
2006,10,22,15,01,13.30
2006,10,22,15,02,13.30
2006,10,22,15,03,13.30
2006,10,22,15,04,13.30
2006,10,22,15,05,13.30
2006,10,22,15,06,13.20
2006,10,22,15,07,13.10
2006,10,22,15,08,13.00
2006,10,22,15,09,13.00
2006,10,22,15,10,13.00
2006,10,22,15,11,13.00
2006,10,22,15,12,13.10
2006,10,22,15,13,13.10
2006,10,22,15,14,13.20
2006,10,22,15,15,13.20
2006,10,22,15,16,13.20
2006,10,22,15,17,13.10
2006,10,22,15,18,13.10
2006,10,22,15,19,13.10
2006,10,22,15,20,13.10
2006,10,22,15,21,13.10
2006,10,22,15,22,13.20
2006,10,22,15,23,13.20
2006,10,22,15,24,13.20
2006,10,22,15,25,13.20
2006,10,22,15,26,13.20
2006,10,22,15,27,13.10
2006,10,22,15,28,13.00
2006,10,22,15,29,12.90
2006,10,22,15,30,12.90
2006,10,22,15,31,12.80
2006,10,22,15,32,12.80
2006,10,22,15,33,12.80
2006,10,22,15,34,12.70
2006,10,22,15,35,12.70
2006,10,22,15,36,12.70
2006,10,22,15,37,12.70
2006,10,22,15,38,12.60
2006,10,22,15,39,12.60
2006,10,22,15,40,12.60
2006,10,22,15,41,12.60
2006,10,22,15,42,12.60
2006,10,22,15,43,12.60
2006,10,22,15,44,12.60
2006,10,22,15,45,12.70
2006,10,22,15,46,12.60
2006,10,22,15,47,12.60
2006,10,22,15,48,12.70
2006,10,22,15,49,12.70
2006,10,22,15,50,12.80
2006,10,22,15,51,12.80
2006,10,22,15,52,12.80
2006,10,22,15,53,12.90
2006,10,22,15,54,13.00
2006,10,22,15,55,13.00
2006,10,22,15,56,13.00
2006,10,22,15,57,13.10
2006,10,22,15,58,13.10
2006,10,22,15,59,13.10
2006,10,22,16,00,13.00
2006,10,22,16,01,13.00
2006,10,22,16,02,12.90
2006,10,22,16,03,12.80
2006,10,22,16,04,12.80
2006,10,22,16,05,12.80
2006,10,22,16,06,12.80
2006,10,22,16,07,12.80
2006,10,22,16,08,12.80
2006,10,22,16,09,12.80
2006,10,22,16,10,12.80
2006,10,22,16,11,12.80
2006,10,22,16,12,12.80
2006,10,22,16,13,12.80
2006,10,22,16,14,12.70
2006,10,22,16,15,12.70
2006,10,22,16,16,12.70
2006,10,22,16,17,12.60
2006,10,22,16,18,12.60
2006,10,22,16,19,12.60
2006,10,22,16,20,12.60
2006,10,22,16,21,12.60
2006,10,22,16,22,12.60
2006,10,22,16,23,12.60
2006,10,22,16,24,12.60
2006,10,22,16,25,12.70
2006,10,22,16,26,12.70
2006,10,22,16,27,12.80
2006,10,22,16,28,12.80
2006,10,22,16,29,12.80
2006,10,22,16,30,12.80
2006,10,22,16,31,12.90
2006,10,22,16,32,12.90
2006,10,22,16,33,12.90
2006,10,22,16,34,12.90
2006,10,22,16,35,13.00
2006,10,22,16,36,13.00
2006,10,22,16,37,13.00
2006,10,22,16,38,13.00
2006,10,22,16,39,13.00
2006,10,22,16,40,13.00
2006,10,22,16,41,13.10
2006,10,22,16,42,13.10
2006,10,22,16,43,13.10
2006,10,22,16,44,13.10
2006,10,22,16,45,13.10
2006,10,22,16,46,13.10
2006,10,22,16,47,13.10
2006,10,22,16,48,13.00
2006,10,22,16,49,13.00
2006,10,22,16,50,12.90
2006,10,22,16,51,12.90
2006,10,22,16,52,12.80
2006,10,22,16,53,12.80
2006,10,22,16,54,12.70
2006,10,22,16,55,12.60
2006,10,22,16,56,12.50
2006,10,22,16,57,12.40
2006,10,22,16,58,12.30
2006,10,22,16,59,12.30
2006,10,22,17,00,12.20
2006,10,22,17,01,12.20
2006,10,22,17,02,12.10
2006,10,22,17,03,12.00
2006,10,22,17,04,12.00
2006,10,22,17,05,11.90
2006,10,22,17,06,11.90
2006,10,22,17,07,11.80
2006,10,22,17,08,11.80
2006,10,22,17,09,11.70
2006,10,22,17,10,11.60
2006,10,22,17,11,11.60
2006,10,22,17,12,11.60
2006,10,22,17,13,11.50
2006,10,22,17,14,11.40
2006,10,22,17,15,11.40
2006,10,22,17,16,11.40
2006,10,22,17,17,11.40
2006,10,22,17,18,11.30
2006,10,22,17,19,11.30
2006,10,22,17,20,11.30
2006,10,22,17,21,11.20
2006,10,22,17,22,11.20
2006,10,22,17,23,11.10
2006,10,22,17,24,11.10
2006,10,22,17,25,11.10
2006,10,22,17,26,11.10
2006,10,22,17,27,11.00
2006,10,22,17,28,10.90
2006,10,22,17,29,10.90
2006,10,22,17,30,10.90
2006,10,22,17,31,10.90
2006,10,22,17,32,10.80
2006,10,22,17,33,10.80
2006,10,22,17,34,10.70
2006,10,22,17,35,10.70
2006,10,22,17,36,10.60
2006,10,22,17,37,10.60
2006,10,22,17,38,10.60
2006,10,22,17,39,10.60
2006,10,22,17,40,10.60
2006,10,22,17,41,10.50
2006,10,22,17,42,10.40
2006,10,22,17,43,10.40
2006,10,22,17,44,10.40
2006,10,22,17,45,10.30
2006,10,22,17,46,10.30
2006,10,22,17,47,10.30